www.pogodaiklimat.ru

Погода и климат >> Архив погоды >> Индонезия >> Танджунгредеп


ПОГОДА в Танджунгредепе

  • Прогноз погоды в Танджунгредепе
  • Монитор погоды в Танджунгредепе

АРХИВ ПОГОДЫ в Танджунгредепе

Время (UTC), дата Ветер
(напр.,м/с)
 
Видим.   Явления Облачность Т
(С)
Тd
(С)
f
(%)
Тe
(С)
Тes
(С)
Комфортность P
(гПа)
Po
(гПа)
Тmin
(С)
Tmax
(С)
R
(мм)
R24
(мм)
S
(см)
00 15.09 З 2 400 м дым {туман} 9/5 210 м
[Cu hum As op Ci fib]
+23.4 +22.5 95 +32 +34 очень
душно
1013.2 1011.6 +20.6
03 15.09 С 3 500 м дым {туман} 9/5 210 м
[Cu hum As op Ci fib]
+31.6 +22.5 59 +41 +47 опасность
перегрева
1011.6 1010.0
06 15.09 С 2 500 м дым {туман} 9/6 240 м
[Cu hum As op Ci fib]
+35.6 +20.6 42 +42 +47 опасность
перегрева
1008.1 1006.5
09 15.09 СВ 2 500 м дым {туман} 9/5 360 м
[Cu hum As op Ci fib]
+33.7 +22.0 50 +42 +43 опасность
перегрева
1007.4 1005.8
12 15.09 В 3 700 м дым {туман} ?/? +28.0 +25.1 84 +40 +40 очень
душно
1010.2 1008.6 +35.8
15 15.09 СВ 2 1000 м дым {туман} ?/? +26.0 +24.5 91 +36 +36 очень
душно
1012.1 1010.5
18 15.09 Ю 2 1500 м дым {туман} 10/5 400 м
[Cu hum As op Ci fib]
+24.2 +23.8 98 +33 +33 очень
душно
1011.2 1009.6
21 15.09 штиль 0 1000 м дым {туман} 9/5 400 м
[Cu hum As op Ci fib]
+23.4 +23.0 98 +33 +33 очень
душно
1011.4 1009.8
00 16.09 ЮЗ 1 500 м дым {туман} ?/? +25.6 +24.1 91 +35 +35 очень
душно
1012.5 1010.9 +23.2 233
03 16.09 С 2 400 м дым {туман} ?/? +31.2 +23.5 64 +42 +42 опасность
перегрева
1011.5 1009.9
06 16.09 С 3 600 м дым {туман} ?/? +35.0 +22.9 50 +45 +45 опасность
перегрева
1008.3 1006.7
09 16.09 ЮВ 3 700 м дым {туман} ?/? +33.0 +23.2 56 +43 +43 опасность
перегрева
1007.6 1006.0
12 16.09 ЮВ 3 500 м дым {туман} ?/? +27.4 +24.6 85 +39 +39 очень
душно
1009.7 1008.1 +35.0
15 16.09 СВ 3 500 м дым {туман} ?/? +26.4 +24.3 88 +37 +37 очень
душно
1011.3 1009.7
18 16.09 В 1 500 м дым {туман} ?/? +24.7 +23.9 95 +34 +34 очень
душно
1010.4 1008.8
21 16.09 штиль 0 700 м дым {туман} ?/? +24.3 +23.9 98 +33 +33 очень
душно
1010.9 1009.3
00 17.09 З 1 1000 м дым {туман} 9/4 330 м
[Cu hum As op Ci fib]
+26.9 +24.8 88 +38 +40 очень
душно
1012.3 1010.7 +24.1
03 17.09 СЗ 2 1200 м дым {туман} ?/? +32.0 +24.5 65 +45 +45 опасность
перегрева
1011.5 1009.9
06 17.09 СВ 3 2500 м дым {туман} 6/4 400 м
[Cu hum As op Ci fib]
+34.6 +24.4 56 +47 +55 опасность
перегрева
1008.4 1006.8
09 17.09 ЮВ 4 3000 м дым {туман} 6/4 450 м
[Cu hum As op Ci fib]
+32.2 +24.9 65 +45 +46 опасность
перегрева
1008.1 1006.5
12 17.09 В 2 6000 м дым {туман} 6/4 500 м
[Cu hum As op Ci fib]
+28.4 +24.3 78 +40 +40 очень
душно
1011.0 1009.4 +35.0
15 17.09 В 2 7000 м дым {туман} 6/4 500 м
[Cu hum As op Ci fib]
+25.4 +24.4 94 +35 +35 очень
душно
1012.6 1011.0
18 17.09 штиль 0 6000 м дым {туман} 8/4 450 м
[Cu hum As op Ci fib]
+24.3 +23.7 96 +33 +33 очень
душно
1011.6 1010.0
21 17.09 штиль 0 3000 м дым {туман} 9/5 210 м
[Cu hum As op Ci fib]
+23.4 +23.1 98 +33 +33 очень
душно
1011.7 1010.1
00 18.09 З 2 700 м дым {туман} ?/? +26.1 +24.0 88 +36 +36 очень
душно
1013.7 1012.1 +23.1
03 18.09 ЮЗ 2 1500 м дым {туман} ?/? +32.4 +23.0 58 +43 +43 опасность
перегрева
1012.7 1011.1
06 18.09 С 2 2000 м дым {туман} ?/? +35.2 +21.7 46 +43 +43 опасность
перегрева
1009.1 1007.5
09 18.09 СВ 2 1000 м дым {туман} ?/? +31.5 +26.0 73 +47 +47 опасность
перегрева
1008.8 1007.3
12 18.09 СВ 3 3500 м дым {туман} 4/3 500 м
[Cu hum As op Ci fib]
+28.2 +25.3 84 +41 +41 опасность
перегрева
1011.3 1009.7 +35.2
15 18.09 СВ 2 6000 м дым {туман} 6/4 450 м
[Cu hum As op Ci fib]
+25.8 +24.8 94 +37 +37 очень
душно
1012.6 1011.0
18 18.09 ЮЗ 2 5000 м дым {туман} 6/4 500 м
[Cu hum As op Ci fib]
+23.8 +20 +20 1011.7 1010.1
21 18.09 Ю 2 4000 м дымка {туман} 9/4 450 м
[Cu hum As op Ci fib]
+23.8 +22.5 92 +31 +31 очень
душно
1012.3 1010.5
00 19.09 ЮЗ 1 500 м дым {туман} ?/? +26.1 +24.4 90 +36 +36 очень
душно
1014.3 1012.7 +23.8
03 19.09 СВ 2 1000 м дым {туман} ?/? +32.1 +24.1 63 +44 +44 опасность
перегрева
1012.6 1011.0
06 19.09 СВ 3 1000 м дым {туман} ?/? +35.1 +22.7 49 +45 +45 опасность
перегрева
1009.3 1007.7
09 19.09 В 2 1800 м дым {туман} ?/? +32.3 +24.0 62 +44 +44 опасность
перегрева
1009.1 1007.6
12 19.09 ЮВ 3 4000 м дым {туман} 6/4 420 м
[Cu hum As op Ci fib]
+27.8 +24.3 81 +39 +39 очень
душно
1011.6 1010.0 +35.7
15 19.09 В 2 5000 м дым {туман} 8/4 420 м
[Cu hum As op Ci fib]
+26.4 +24.9 91 +38 +38 очень
душно
1012.3 1010.8
18 19.09 В 2 6000 м дым {туман} 8/3 450 м
[Cu hum As op Ci fib]
+25.6 +24.6 94 +36 +36 очень
душно
1011.9 1010.3
21 19.09 штиль 0 2000 м дым {туман} ?/? +24.4 +23.8 96 +33 +33 очень
душно
1012.0 1010.4
00 20.09 штиль 0 1000 м дым {туман} 8/5 400 м
[Cu hum As trans Cs]
+27.0 +25.1 89 +39 +41 очень
душно
1013.1 1011.6 +24.3
03 20.09 СВ 2 1000 м дым {туман} 8/5 400 м
[Cu hum As trans Cs]
+32.1 +23.5 60 +43 +50 опасность
перегрева
1011.8 1010.2
06 20.09 В 1 1000 м дым {туман} 9/5 400 м
[Cu hum As op Ci fib]
+35.4 +22.6 48 +45 +51 опасность
перегрева
1008.6 1007.0
09 20.09 В 3 2500 м дым {туман} 8/5 450 м
[Cu hum As op Ci fib]
+32.5 +23.9 61 +44 +45 опасность
перегрева
1008.2 1006.6
12 20.09 ЮВ 2 5000 м дым {туман} 8/5 450 м
[Sc As trans Ci fib]
+27.7 +24.8 84 +39 +39 очень
душно
1011.0 1009.4 +35.8
15 20.09 ЮВ 3 5000 м 8/5 450 м
[Sc As trans Ci fib]
+26.4 +25.8 97 +39 +39 очень
душно
1012.0 1010.4
18 20.09 штиль 0 5000 м 8/4 450 м
[Cu hum As op Ci fib]
+24.2 +23.6 96 +33 +33 очень
душно
1011.4 1009.8
21 20.09 штиль 0 3000 м 9/5 400 м
[Cu hum As op Ci fib]
+23.7 +23.4 98 +32 +32 очень
душно
1011.4 1009.8
00 21.09 СЗ 3 1200 м дымка {туман} 9/4 400 м
[Cu hum As op Ci fib]
+26.6 +24.7 89 +38 +39 очень
душно
1013.0 1011.4 +23.4
03 21.09 С 2 1100 м дым {туман} 8/4 400 м
[Cu hum As op Ci fib]
+32.7 +23.2 57 +43 +51 опасность
перегрева
1012.0 1010.4
06 21.09 штиль 0 2500 м дым {туман} 8/5 400 м
[Cu hum As op Ci fib]
+35.3 +21.8 46 +44 +52 опасность
перегрева
1008.7 1007.1
09 21.09 ЮВ 6 400 м слаб. дождь {гроза} 10/6 210 м
[Cu hum As op]
+24.2 +23.8 98 +33 +33 очень
душно
1009.9 1008.3 55
12 21.09 ЮЗ 1 3500 м мгла {гроза, дождь} 8/4 450 м
[Cu hum As op Ci fib]
+23.7 +23.3 98 +32 +32 очень
душно
1012.4 1010.8 +35.3 55
15 21.09 Ю 2 3500 м мгла {туман} 6/4 450 м
[Cu hum As op Ci fib]
+23.4 +23.1 98 +33 +33 очень
душно
1013.1 1011.5
18 21.09 штиль 0 800 м туман на расстоянии 6/4 300 м
[Cu hum As op Ci fib]
+23.4 +23.3 99 +33 +33 очень
душно
1012.1 1010.5

 

Местоположение метеостанции Танджунгредеп (Индонезия): широта 2.12 долгота 117.45 высота над уровнем моря 26 м.

В архиве по умолчанию представлена погода в Танджунгредепе за последнюю неделю. Архивные данные за месяц целиком и за предыдущие месяцы, начиная с января 2011 года, Вы можете получить, выбрав интересующий диапазон дат из раскрывающегося списка и нажав кнопку "Ввод!".


*Определитесь, кто Вы:
робот инопланетянин человек

Внимание! Время в таблицах - всемирное. Для получения местного времени необходимо прибавить поправку, которая равна 8 ч.

Смотрите также архив погоды в соседних городах и на ближайших метеорологических станциях:

Погода в Танджунгселоре (Индонезия) (82 км)
Погода в Таракане (Индонезия) (135 км)
Погода в Тавау (Малайзия) (244 км)
Погода в Лонгбаване (Индонезия) (266 км)
Погода в Самаринде (Индонезия) (307 км)
Погода в Баликпапане (Индонезия) (382 км)
Погода в Толи-Толи (Индонезия) (392 км)
Погода в Палу (Индонезия) (402 км)
Погода в Брунее (Бруней) (419 км)
Погода в Сандакане (Малайзия) (426 км)

Пояснения к столбцам:

Ветер - указаны скорость ветра в м/с - средняя за 10 мин, порывы в срок и между сроками (в фигурных скобках) и направление, откуда дует ветер: С - северный, СВ - северо-восточный, В - восточный, ЮВ - юго-восточный, Ю - южный, ЮЗ - юго-западный, З - западный, СЗ - северо-западный.
Видимость - горизонтальная дальность видимости в метрах или километрах. При видимости от 1 до 10 км при отсутствии осадков обычно наблюдается дымка, при ухудшении видимости до 1 км и менее - туман. В сухую погоду видимость может ухудшаться дымом, пылью или мглою.
Явления - указаны атмосферные явления, наблюдавшиеся в срок или в последний час перед сроком; фигурными скобками обозначены явления, наблюдавшиеся между сроками (за 1-3 часа до срока); квадратными скобками обозначены град или гололедные отложения с указанием их диаметра в мм.
Облачность - указаны через наклонную черту общая и нижняя облачность в баллах и высота нижней границы облаков в метрах; квадратными скобками обозначены формы облаков: Ci - перистые, Cs - перисто-слоистые, Cc - перисто-кучевые, Ac - высококучевые, As - высокослоистые, Sc - слоисто-кучевые, Ns - слоисто-дождевые, Cu - кучевые, Cb - кучево-дождевые. Подробнее классификацию облаков см. в Атласе облаков (PDF).
T - Температура воздуха - температура, измеренная на высоте 2 м над землей.
Td - Температура точки росы - температура, при понижении до которой содержащийся в воздухе водяной пар достигнет насыщения.
f - Относительная влажность воздуха - влажноcть воздуха, измеренная на высоте 2 м над землей.
Te - Эффективная температура - температура, которую ощущает одетый по сезону человек в тени. Характеристика душности погоды. При расчете учитывается влияние влажности воздуха и скорости ветра на теплоощущения человека.
Tes - Эффективная температура на солнце - температура, которую ощущает человек, с поправкой на солнечный нагрев. Характеристика знойности погоды. Зависит от высоты солнца над горизонтом, облачности и скорости ветра. Ночью, в пасмурную погоду, а также при ветре 12 м/с и более поправка равна нулю.
P - Атмосферное давление - приведенное к уровню моря атмосферное давление.
Po - Атмосферное давление - измеренное на уровне метеостанции атмосферное давление.
Tmin - Минимальная температура - минимум температуры воздуха на высоте 2 м над землей.
Tmax - Максимальная температура - максимум температуры воздуха на высоте 2 м над землей.
R - Количество осадков - Количество выпавших осадков за период времени, мм. При наведении курсора мыши на число - период времени, за который выпало указанное количество осадков.
R24 - Количество осадков - Количество выпавших осадков за 24 часа, мм.
S - Снежный покров - Высота снежного покрова, см. При наведении курсора мыши на число - состояние снежного покрова и степень покрытия местности в баллах.